Hourly Data Report for March 20, 2017

All times are specified in Local Standard Time (LST). Add 1 hour to adjust for Daylight Saving Time where and when it is observed.

TORONTO CITY
ONTARIO

43°40'00.000" N
79°24'00.000" W
112.50 m
6158355
71508
XTO

Download Data

Hourly Data (March 2017)
Hourly Data Report for March 20, 2017
TIME Temp Definition
°C
Dew Point Definition
°C
Rel Hum Definition
%
Wind Dir Definition
10's deg

Wind Spd Definition
km/h
Visibility Definition
km
Stn Press Definition
kPa
Hmdx Definition


Wind Chill Definition


Weather Definition


00:00 2.1 -0.3 84 LegendMM LegendMM   100.99     LegendNANA
01:00 1.8 -0.2 87 LegendMM LegendMM   100.98     LegendNANA
02:00 1.6 -0.9 84 LegendMM LegendMM   100.97     LegendNANA
03:00 1.1 -1.3 84 LegendMM LegendMM   100.97     LegendNANA
04:00 1.1 -1.4 83 LegendMM LegendMM   100.92     LegendNANA
05:00 1.5 -1.3 82 LegendMM LegendMM   100.88     LegendNANA
06:00 1.6 -1.0 83 LegendMM LegendMM   100.81     LegendNANA
07:00 1.8 -0.8 83 LegendMM LegendMM   100.75     LegendNANA
08:00 1.7 -0.3 86 LegendMM LegendMM   100.74     LegendNANA
09:00 1.8 -0.3 86 LegendMM LegendMM   100.76     LegendNANA
10:00 2.2 -0.6 82 LegendMM LegendMM   100.76     LegendNANA
11:00 2.8 -0.3 80 LegendMM LegendMM   100.72     LegendNANA
12:00 3.7 -0.1 76 LegendMM LegendMM   100.66     LegendNANA
13:00 4.6 0.0 72 LegendMM LegendMM   100.58     LegendNANA
14:00 4.6 -0.1 72 LegendMM LegendMM   100.48     LegendNANA
15:00 5.0 -0.1 70 LegendMM LegendMM   100.40     LegendNANA
16:00 5.0 -0.2 69 LegendMM LegendMM   100.35     LegendNANA
17:00 4.8 -0.3 69 LegendMM LegendMM   100.31     LegendNANA
18:00 4.7 0.1 72 LegendMM LegendMM   100.30     LegendNANA
19:00 4.7 0.1 72 LegendMM LegendMM   100.29     LegendNANA
20:00 4.5 0.5 75 LegendMM LegendMM   100.31     LegendNANA
21:00 4.5 1.2 79 LegendMM LegendMM   100.29     LegendNANA
22:00 4.5 1.2 79 LegendMM LegendMM   100.17     LegendNANA
23:00 4.7 1.2 78 LegendMM LegendMM   100.18     LegendNANA

Notes on Data Quality.

Legend

  • E = Estimated
  • M = Missing
  • NA = Not Available
Date modified: